timestamp,wind_dir_avg,wind_spd_max_dir,wind_spd_avg,wind_spd_gust,battery_voltage,lat,long
2018-01-24 00:00:00+00:00,230.0,231.0,4.88,5.7,,47.59359,-54.27349
2018-01-24 00:10:00+00:00,227.0,229.0,6.47,7.35,,47.59359,-54.27349
2018-01-24 00:20:00+00:00,234.0,235.0,5.98,7.33,,47.59359,-54.27349
2018-01-24 00:30:00+00:00,240.0,238.0,5.68,6.85,,47.59359,-54.27349
2018-01-24 00:40:00+00:00,221.0,222.0,7.45,8.16,,47.59359,-54.27349
2018-01-24 00:50:00+00:00,220.0,224.0,7.38,8.7,,47.59359,-54.27349
2018-01-24 01:00:00+00:00,224.0,226.0,7.75,8.37,,47.59359,-54.27349
2018-01-24 01:10:00+00:00,224.0,222.0,8.74,9.77,,47.59359,-54.27349
2018-01-24 01:20:00+00:00,220.0,218.0,9.05,10.08,,47.59359,-54.27349
2018-01-24 01:30:00+00:00,218.0,216.0,8.4,9.65,,47.59359,-54.27349
2018-01-24 01:40:00+00:00,220.0,222.0,8.77,9.64,,47.59359,-54.27349
2018-01-24 01:50:00+00:00,214.0,215.0,9.81,10.59,,47.59359,-54.27349
2018-01-24 02:00:00+00:00,213.0,213.0,9.66,10.5,,47.59359,-54.27349
2018-01-24 02:10:00+00:00,206.0,205.0,8.22,9.04,,47.59359,-54.27349
2018-01-24 02:20:00+00:00,210.0,208.0,8.6,9.71,,47.59359,-54.27349
2018-01-24 02:30:00+00:00,205.0,204.0,8.53,9.52,,47.59359,-54.27349
2018-01-24 02:40:00+00:00,208.0,206.0,8.17,9.49,,47.59359,-54.27349
2018-01-24 02:50:00+00:00,210.0,211.0,9.48,10.5,,47.59359,-54.27349
2018-01-24 03:00:00+00:00,207.0,210.0,8.85,9.88,,47.59359,-54.27349
2018-01-24 03:10:00+00:00,207.0,217.0,8.54,9.77,,47.59359,-54.27349
2018-01-24 03:20:00+00:00,204.0,207.0,7.69,8.56,,47.59359,-54.27349
2018-01-24 03:30:00+00:00,214.0,220.0,9.95,11.27,,47.59359,-54.27349
2018-01-24 03:40:00+00:00,209.0,208.0,9.06,10.72,,47.59359,-54.27349
2018-01-24 03:50:00+00:00,198.0,200.0,8.51,9.52,,47.59359,-54.27349
2018-01-24 04:00:00+00:00,204.0,209.0,9.3,10.36,,47.59359,-54.27349
2018-01-24 04:10:00+00:00,199.0,203.0,8.89,9.8,,47.59359,-54.27349
2018-01-24 04:20:00+00:00,207.0,212.0,9.38,10.53,,47.59359,-54.27349
2018-01-24 04:30:00+00:00,211.0,216.0,9.01,10.68,,47.59359,-54.27349
2018-01-24 04:40:00+00:00,209.0,218.0,8.31,9.98,,47.59359,-54.27349
2018-01-24 04:50:00+00:00,200.0,202.0,8.42,9.73,,47.59359,-54.27349
2018-01-24 05:00:00+00:00,197.0,193.0,7.97,9.12,,47.59359,-54.27349
2018-01-24 05:10:00+00:00,199.0,201.0,8.97,10.03,,47.59359,-54.27349
2018-01-24 05:20:00+00:00,192.0,194.0,8.28,10.3,,47.59359,-54.27349
2018-01-24 05:30:00+00:00,188.0,191.0,8.55,10.06,,47.59359,-54.27349
2018-01-24 05:40:00+00:00,193.0,200.0,8.59,9.78,,47.59359,-54.27349
2018-01-24 05:50:00+00:00,192.0,189.0,8.82,9.58,,47.59359,-54.27349
2018-01-24 06:00:00+00:00,197.0,192.0,10.22,11.83,,47.59359,-54.27349
2018-01-24 06:10:00+00:00,189.0,190.0,9.43,11.59,,47.59359,-54.27349
2018-01-24 06:20:00+00:00,193.0,190.0,10.34,11.67,,47.59359,-54.27349
2018-01-24 06:30:00+00:00,195.0,200.0,10.22,12.04,,47.59359,-54.27349
2018-01-24 06:40:00+00:00,189.0,189.0,11.48,12.81,,47.59359,-54.27349
2018-01-24 06:50:00+00:00,190.0,191.0,11.65,13.04,,47.59359,-54.27349
2018-01-24 07:00:00+00:00,198.0,194.0,10.72,12.19,,47.59359,-54.27349
2018-01-24 07:10:00+00:00,197.0,195.0,12.08,13.73,,47.59359,-54.27349
2018-01-24 07:20:00+00:00,194.0,184.0,10.63,12.58,,47.59359,-54.27349
2018-01-24 07:30:00+00:00,200.0,198.0,9.73,10.99,,47.59359,-54.27349
2018-01-24 07:40:00+00:00,196.0,198.0,10.26,11.87,,47.59359,-54.27349
2018-01-24 07:50:00+00:00,198.0,202.0,11.41,14.1,,47.59359,-54.27349
2018-01-24 08:00:00+00:00,201.0,208.0,10.75,12.76,,47.59359,-54.27349
2018-01-24 08:10:00+00:00,202.0,202.0,12.81,14.33,,47.59359,-54.27349
2018-01-24 08:20:00+00:00,195.0,198.0,13.56,16.23,,47.59359,-54.27349
2018-01-24 08:30:00+00:00,200.0,200.0,13.23,14.8,,47.59359,-54.27349
2018-01-24 08:40:00+00:00,200.0,193.0,12.64,15.21,,47.59359,-54.27349
2018-01-24 08:50:00+00:00,197.0,199.0,13.5,14.89,,47.59359,-54.27349
2018-01-24 09:00:00+00:00,193.0,194.0,12.9,15.36,,47.59359,-54.27349
2018-01-24 09:10:00+00:00,192.0,189.0,13.14,15.39,,47.59359,-54.27349
2018-01-24 09:20:00+00:00,192.0,192.0,12.07,13.3,,47.59359,-54.27349
2018-01-24 09:30:00+00:00,190.0,199.0,12.54,14.21,,47.59359,-54.27349
2018-01-24 09:40:00+00:00,187.0,186.0,13.74,16.35,,47.59359,-54.27349
2018-01-24 09:50:00+00:00,185.0,192.0,13.34,16.6,,47.59359,-54.27349
2018-01-24 10:00:00+00:00,187.0,185.0,14.1,16.87,,47.59359,-54.27349
2018-01-24 10:10:00+00:00,190.0,193.0,12.96,15.16,,47.59359,-54.27349
2018-01-24 10:20:00+00:00,195.0,199.0,12.03,14.45,,47.59359,-54.27349
2018-01-24 10:30:00+00:00,186.0,182.0,14.43,17.38,,47.59359,-54.27349
2018-01-24 10:40:00+00:00,189.0,193.0,13.04,15.2,,47.59359,-54.27349
2018-01-24 10:50:00+00:00,188.0,184.0,13.83,17.96,,47.59359,-54.27349
2018-01-24 11:00:00+00:00,190.0,191.0,12.89,14.06,,47.59359,-54.27349
2018-01-24 11:10:00+00:00,189.0,183.0,11.35,13.43,,47.59359,-54.27349
2018-01-24 11:20:00+00:00,190.0,188.0,13.47,16.84,,47.59359,-54.27349
2018-01-24 11:30:00+00:00,187.0,188.0,15.35,18.17,,47.59359,-54.27349
2018-01-24 11:40:00+00:00,193.0,202.0,11.89,13.85,,47.59359,-54.27349
2018-01-24 11:50:00+00:00,192.0,202.0,14.67,16.94,,47.59359,-54.27349
2018-01-24 12:00:00+00:00,185.0,195.0,12.13,14.55,,47.59359,-54.27349
2018-01-24 12:10:00+00:00,186.0,181.0,11.95,15.0,,47.59359,-54.27349
2018-01-24 12:20:00+00:00,189.0,183.0,13.52,17.59,,47.59359,-54.27349
2018-01-24 12:30:00+00:00,188.0,191.0,15.45,19.41,,47.59359,-54.27349
2018-01-24 12:40:00+00:00,185.0,188.0,16.29,19.63,,47.59359,-54.27349
2018-01-24 12:50:00+00:00,180.0,185.0,15.78,19.05,,47.59359,-54.27349
2018-01-24 13:00:00+00:00,181.0,176.0,18.3,21.22,,47.59359,-54.27349
2018-01-24 13:10:00+00:00,176.0,174.0,17.48,20.26,,47.59359,-54.27349
2018-01-24 13:20:00+00:00,184.0,182.0,20.88,24.13,,47.59359,-54.27349
2018-01-24 13:30:00+00:00,184.0,185.0,18.5,21.79,,47.59359,-54.27349
2018-01-24 13:40:00+00:00,186.0,185.0,17.95,21.21,,47.59359,-54.27349
2018-01-24 13:50:00+00:00,185.0,194.0,16.91,19.63,,47.59359,-54.27349
2018-01-24 14:00:00+00:00,187.0,187.0,20.68,24.03,,47.59359,-54.27349
2018-01-24 14:10:00+00:00,183.0,186.0,19.16,23.06,,47.59359,-54.27349
2018-01-24 14:20:00+00:00,189.0,190.0,19.37,21.96,,47.59359,-54.27349
2018-01-24 14:30:00+00:00,188.0,186.0,21.86,25.83,,47.59359,-54.27349
2018-01-24 14:40:00+00:00,192.0,199.0,21.31,25.5,,47.59359,-54.27349
2018-01-24 14:50:00+00:00,192.0,203.0,21.35,27.04,,47.59359,-54.27349
2018-01-24 15:00:00+00:00,191.0,189.0,19.34,22.69,,47.59359,-54.27349
2018-01-24 15:10:00+00:00,193.0,199.0,21.94,26.14,,47.59359,-54.27349
2018-01-24 15:20:00+00:00,192.0,189.0,19.03,22.81,,47.59359,-54.27349
2018-01-24 15:30:00+00:00,198.0,201.0,21.99,26.48,,47.59359,-54.27349
2018-01-24 15:40:00+00:00,193.0,203.0,23.29,27.1,,47.59359,-54.27349
2018-01-24 15:50:00+00:00,195.0,206.0,22.33,28.3,,47.59359,-54.27349
2018-01-24 16:00:00+00:00,190.0,191.0,22.37,26.43,,47.59359,-54.27349
2018-01-24 16:10:00+00:00,197.0,195.0,22.32,26.29,,47.59359,-54.27349
2018-01-24 16:20:00+00:00,198.0,211.0,21.99,26.48,,47.59359,-54.27349
2018-01-24 16:30:00+00:00,208.0,214.0,21.9,25.77,,47.59359,-54.27349
2018-01-24 16:40:00+00:00,205.0,209.0,22.81,27.08,,47.59359,-54.27349
2018-01-24 16:50:00+00:00,201.0,203.0,20.69,24.36,,47.59359,-54.27349
2018-01-24 17:00:00+00:00,208.0,198.0,20.77,24.66,,47.59359,-54.27349
2018-01-24 17:10:00+00:00,206.0,211.0,20.88,25.42,,47.59359,-54.27349
2018-01-24 17:20:00+00:00,210.0,216.0,21.42,25.4,,47.59359,-54.27349
2018-01-24 17:30:00+00:00,210.0,206.0,21.69,26.38,,47.59359,-54.27349
2018-01-24 17:40:00+00:00,208.0,211.0,20.95,26.64,,47.59359,-54.27349
2018-01-24 17:50:00+00:00,201.0,207.0,17.44,20.17,,47.59359,-54.27349
2018-01-24 18:00:00+00:00,205.0,199.0,17.0,18.84,,47.59359,-54.27349
2018-01-24 18:10:00+00:00,205.0,209.0,18.63,22.37,,47.59359,-54.27349
2018-01-24 18:20:00+00:00,204.0,206.0,19.04,26.68,,47.59359,-54.27349
2018-01-24 18:30:00+00:00,207.0,205.0,19.27,22.73,,47.59359,-54.27349
2018-01-24 18:40:00+00:00,207.0,213.0,19.44,23.01,,47.59359,-54.27349
2018-01-24 18:50:00+00:00,211.0,214.0,18.34,22.44,,47.59359,-54.27349
2018-01-24 19:00:00+00:00,213.0,212.0,19.04,22.47,,47.59359,-54.27349
2018-01-24 19:10:00+00:00,209.0,215.0,18.57,22.41,,47.59359,-54.27349
2018-01-24 19:20:00+00:00,216.0,211.0,19.1,22.35,,47.59359,-54.27349
2018-01-24 19:30:00+00:00,219.0,218.0,18.48,22.57,,47.59359,-54.27349
2018-01-24 19:40:00+00:00,234.0,234.0,15.7,18.19,,47.59359,-54.27349
2018-01-24 19:50:00+00:00,228.0,233.0,14.97,16.99,,47.59359,-54.27349
2018-01-24 20:00:00+00:00,225.0,222.0,13.56,15.67,,47.59359,-54.27349
2018-01-24 20:10:00+00:00,226.0,222.0,12.38,14.42,,47.59359,-54.27349
2018-01-24 20:20:00+00:00,231.0,232.0,12.11,13.74,,47.59359,-54.27349
2018-01-24 20:30:00+00:00,227.0,224.0,11.03,12.46,,47.59359,-54.27349
2018-01-24 20:40:00+00:00,224.0,222.0,11.72,13.08,,47.59359,-54.27349
2018-01-24 20:50:00+00:00,226.0,224.0,12.31,13.87,,47.59359,-54.27349
2018-01-24 21:00:00+00:00,229.0,230.0,11.91,13.67,,47.59359,-54.27349
2018-01-24 21:10:00+00:00,231.0,233.0,11.46,12.99,,47.59359,-54.27349
2018-01-24 21:20:00+00:00,239.0,235.0,9.08,10.93,,47.59359,-54.27349
2018-01-24 21:30:00+00:00,258.0,263.0,10.99,12.28,,47.59359,-54.27349
2018-01-24 21:40:00+00:00,266.0,264.0,9.27,9.94,,47.59359,-54.27349
2018-01-24 21:50:00+00:00,260.0,261.0,9.06,10.11,,47.59359,-54.27349
2018-01-24 22:00:00+00:00,262.0,261.0,7.67,9.64,,47.59359,-54.27349
2018-01-24 22:10:00+00:00,257.0,259.0,9.56,10.94,,47.59359,-54.27349
2018-01-24 22:20:00+00:00,240.0,248.0,7.6,9.57,,47.59359,-54.27349
2018-01-24 22:30:00+00:00,238.0,238.0,7.38,8.63,,47.59359,-54.27349
2018-01-24 22:40:00+00:00,249.0,255.0,10.7,12.02,,47.59359,-54.27349
2018-01-24 22:50:00+00:00,261.0,262.0,12.8,15.75,,47.59359,-54.27349
2018-01-24 23:00:00+00:00,260.0,261.0,11.9,14.7,,47.59359,-54.27349
2018-01-24 23:10:00+00:00,261.0,258.0,9.84,10.93,,47.59359,-54.27349
2018-01-24 23:20:00+00:00,251.0,256.0,7.77,9.1,,47.59359,-54.27349
2018-01-24 23:30:00+00:00,254.0,252.0,7.84,8.74,,47.59359,-54.27349
2018-01-24 23:40:00+00:00,246.0,242.0,7.57,8.83,,47.59359,-54.27349
2018-01-24 23:50:00+00:00,240.0,242.0,7.54,8.74,,47.59359,-54.27349
